User: anonymous   Login
Location: Caltech
(34.1382°N, 118.1253°W)
Time: 13:08:21
(UTC-07:00)
Language:

KITSAT 1 - Orbit

View from above orbital plane
View from above orbital plane
View from above satellite
View from above satellite

Ground track
Ground track

The orbit data is extracted from the following two-line orbital elements,

1 22077U 92052B   17265.93629032 -.00000036 +00000-0 +10512-3 0  9993
2 22077 066.0833 121.8053 0013275 301.6267 154.5468 12.86519712179595
Epoch (UTC): 22 September 2017 22:28:15
Eccentricity: 0.0013275
inclination: 66.0833°
perigee height: 1305 km
apogee height: 1325 km
right ascension of ascending node: 121.8053°
argument of perigee: 301.6267°
revolutions per day: 12.86519712
mean anomaly at epoch: 154.5468°
orbit number at epoch: 17959

The dashed part of the orbit path shows where the satellite is in the earth's shadow,  

DLR